FW8482 Weather Reports


Display with metric or nautical units.
time (UTC)temp
F
wind
direction
speed
MPH
gust
MPH
rain 1hr
in
rain 24hr
in
rain mn
in
humidity
%
barometer
mb
20260503032349 35 315 0.0 0.0 0.00 0.00 0.00 87 1019.4
20260503031348 35 315 0.0 0.0 0.00 0.00 0.00 85 1019.5
20260503030349 35 315 0.0 0.0 0.00 0.00 0.00 84 1019.7
20260503025349 35 315 0.0 0.0 0.00 0.00 0.00 82 1019.7
20260503023348 36 315 0.0 0.0 0.00 0.00 0.00 77 1019.7
20260503022349 37 315 0.0 0.0 0.00 0.00 0.00 74 1019.7
20260503021348 38 315 0.0 0.0 0.00 0.00 0.00 71 1019.6
20260503020447 39 315 0.0 0.0 0.00 0.00 0.00 68 1019.6
20260503015450 40 315 0.0 0.0 0.00 0.00 0.00 66 1019.6
20260503014548 41 315 0.0 0.0 0.00 0.00 0.00 67 1019.7
20260503012551 42 315 0.0 0.0 0.00 0.00 0.00 64 1019.5
20260503011549 42 315 0.0 0.0 0.00 0.00 0.00 62 1019.5
20260503010549 43 315 0.0 0.0 0.00 0.00 0.00 60 1019.5
20260503005648 43 270 0.0 0.0 0.00 0.00 0.00 59 1019.5
20260503001848 44 337 0.0 0.0 0.00 0.00 0.00 56 1019.3
20260503000851 45 72 0.0 3.0 0.00 0.00 0.00 57 1019.3
20260502235906 45 323 0.0 0.0 0.00 0.00 0.00 56 1019.2
20260502233947 46 326 0.0 0.0 0.00 0.00 0.00 57 1019.2
20260502232948 47 315 0.0 0.0 0.00 0.00 0.00 58 1019.2
20260502231949 47 22 0.0 0.0 0.00 0.00 0.00 57 1019.2
20260502223949 49 353 0.0 1.0 0.00 0.00 0.00 54 1019.2
20260502221950 50 290 0.0 0.0 0.00 0.00 0.00 53 1019.2
20260502220948 51 325 0.0 0.0 0.00 0.00 0.00 53 1019.1
20260502220849 51 329 0.0 0.0 0.00 0.00 0.00 53 1019.1
20260502215948 51 318 0.0 4.0 0.00 0.00 0.00 55 1019.1
20260502213948 53 269 0.0 1.0 0.00 0.00 0.00 55 1019.1
20260502212949 53 308 0.0 0.0 0.00 0.00 0.00 56 1019.1
20260502211048 53 309 0.0 0.0 0.00 0.00 0.00 53 1019.0
20260502210048 53 309 0.0 2.0 0.00 0.00 0.00 56 1018.8
20260502205049 53 284 3.0 7.0 0.00 0.00 0.00 55 1018.8
20260502203152 54 254 3.0 7.0 0.00 0.00 0.00 52 1018.8
20260502202247 54 291 0.0 0.0 0.00 0.00 0.00 55 1019.0
20260502202150 53 333 0.0 1.0 0.00 0.00 0.00 56 1018.9
20260502200348 52 314 0.0 0.0 0.00 0.00 0.00 51 1019.0
20260502194403 53 329 0.0 2.0 0.00 0.00 0.00 54 1019.0
20260502193447 54 282 0.0 0.0 0.00 0.00 0.00 52 1019.2
20260502192449 55 278 1.0 3.0 0.00 0.00 0.00 53 1019.4
20260502192350 55 335 1.0 3.0 0.00 0.00 0.00 53 1019.3
20260502191448 54 279 1.0 4.0 0.00 0.00 0.00 56 1019.4
20260502184450 52 336 0.0 2.0 0.00 0.00 0.00 59 1019.4
20260502182549 52 263 2.0 5.0 0.00 0.00 0.00 54 1019.6
20260502180649 52 308 0.0 0.0 0.00 0.00 0.00 58 1019.7
20260502163550 51 9 0.0 4.0 0.00 0.00 0.00 58 1019.8
20260502160551 51 284 2.0 4.0 0.00 0.01 0.00 57 1020.0
20260502151648 53 281 0.0 2.0 0.00 0.06 0.00 62 1020.0
20260502150747 53 316 0.0 3.0 0.00 0.06 0.00 65 1020.1
20260502130749 47 321 0.0 0.0 0.00 0.10 0.00 85 1019.7
20260502122948 42 278 0.0 0.0 0.00 0.10 0.00 96 1019.3
20260502121950 41 331 0.0 1.0 0.00 0.10 0.00 95 1019.2
20260502120948 40 315 0.0 0.0 0.00 0.10 0.00 95 1019.1
20260502115048 38 348 0.0 1.0 0.00 0.10 0.00 97 1019.0
20260502114049 36 316 0.0 0.0 0.00 0.10 0.00 97 1018.7
20260502113049 35 315 0.0 0.0 0.00 0.10 0.00 95 1018.6
20260502112148 34 315 0.0 0.0 0.00 0.10 0.00 95 1018.5
20260502111149 32 270 0.0 0.0 0.00 0.10 0.00 96 1018.5
20260502110205 31 270 0.0 0.0 0.00 0.10 0.00 95 1018.3
20260502105248 31 270 0.0 0.0 0.00 0.10 0.00 96 1018.1
20260502104249 30 270 0.0 0.0 0.00 0.10 0.00 96 1018.1
20260502103248 30 270 0.0 0.0 0.00 0.10 0.00 95 1018.2
20260502102347 30 270 0.0 0.0 0.00 0.10 0.00 94 1018.2
20260502101350 31 270 0.0 0.0 0.00 0.10 0.00 94 1018.2
20260502101248 31 270 0.0 0.0 0.00 0.10 0.00 95 1018.2
20260502100249 32 270 0.0 0.0 0.00 0.10 0.00 95 1018.1
20260502090250 34 270 0.0 0.0 0.00 0.10 0.00 95 1018.3
20260502090150 34 270 0.0 0.0 0.00 0.10 0.00 94 1018.3
20260502071248 34 270 0.0 0.0 0.00 0.10 0.00 97 1017.9
20260502065351 34 270 0.0 0.0 0.00 0.10 0.00 98 1018.1
20260502064447 34 270 0.0 0.0 0.00 0.10 0.00 97 1018.3
20260502062547 35 270 0.0 0.0 0.00 0.10 0.00 98 1018.3
20260502060648 35 270 0.0 0.0 0.00 0.10 0.00 97 1018.4
20260502055649 35 270 0.0 0.0 0.00 0.10 0.00 96 1018.5
20260502054649 34 270 0.0 0.0 0.00 0.10 0.00 97 1018.5
20260502053650 35 270 0.0 0.0 0.00 0.10 0.00 97 1018.5
20260502052649 35 270 0.0 0.0 0.00 0.10 0.00 97 1018.7
20260502052550 35 270 0.0 0.0 0.00 0.10 0.00 97 1018.7
20260502051647 36 270 0.0 0.0 0.00 0.10 0.00 97 1018.6
20260502050649 36 270 0.0 0.0 0.00 0.10 0.00 96 1018.8
20260502045648 36 270 0.0 0.0 0.00 0.10 0.00 97 1018.8
20260502045549 36 270 0.0 0.0 0.00 0.10 0.00 96 1018.8
20260502044549 36 270 0.0 0.0 0.00 0.10 0.00 96 1018.7
20260502043547 35 270 0.0 0.0 0.00 0.10 0.00 94 1018.7
20260502042602 35 270 0.0 0.0 0.00 0.10 0.00 95 1018.7
20260502041648 36 270 0.0 0.0 0.00 0.10 0.00 94 1018.7
20260502040649 36 270 0.0 0.0 0.00 0.10 0.00 94 1018.7
20260502035736 35 45 0.0 0.0 0.00 0.10 0.10 93 1018.7
20260502034737 36 45 0.0 0.0 0.00 0.10 0.10 91 1018.7
20260502033834 36 45 0.0 0.0 0.00 0.10 0.10 91 1018.7